sat.trackr.live / text

‹ back to catalog

STARLINK-37019

NORAD 68273 · 2026-055M

PAYLOAD ACTIVE UNKNOWN

§ Identity

Operator
Country
US
Launch date
2026-03-19
Launch site
AFETR
Launch vehicle
Mass (kg)
RCS (m²)

Purposes: comms

External: N2YO · Heavens-Above · Gunter

§ Orbital elements

Epoch: 2026-09-19T22:12:07.234272Z

Period
93.85 min
Inclination
53.1569°
Eccentricity
0.0000909
Mean motion
15.34404633 rev/d
Perigee alt
462.1 km
Apogee alt
463.3 km
Semi-major
6,840.8 km
B*
5.1600e-4
RAAN
132.4943°
Arg perigee
88.7558°
Mean anomaly
271.3548°
Rev number
2,973

§ Raw data

STARLINK-370191 68273U 26055M   26262.92508373  .00017100  00000+0  51600-3 0  99922 68273  53.1569 132.4943 0000909  88.7558 271.3548 15.34404633 29736

JSON: /api/v1/satellites/68273 · /tle

For live sub-satellite position, see the globe view (requires WebGL).

§ Visibility from observer

Set your observer location to see the next 7 days of passes ≥ 10°. The values pass through the URL so the page stays shareable.

No JS? Fill the form by hand. The geolocation button needs JavaScript.